RH
71 70 70 70 71 71 70 70 70 69 66 64 64 64 52 51 46 22 32 41 43 49 46 20 18 18 18 19 18 16 15 13 12 13 12 16 19 15 17 20 18 16 16 17 23
72 72 71 71 72 71 71 72 71 67 67 65 62 62 58 60 26 24 36 46 47 46 24 22 20 21 22 22 22 20 18 14 15 13 14 15 18 19 20 19 18 16 15 20 24
73 73 73 72 72 72 71 72 72 69 66 66 62 61 60 50 31 23 44 46 43 33 26 24 23 22 24 24 24 22 17 20 16 18 21 23 21 18 21 24 19 26 28 27 29
75 75 75 74 74 72 72 72 74 71 65 65 64 62 57 39 28 24 44 44 38 24 25 25 23 25 25 25 25 26 19 20 22 23 27 25 22 25 23 23 29 29 30 31 30
77 78 78 76 75 73 72 73 74 73 69 63 64 65 42 25 23 22 37 33 25 25 25 26 25 25 24 21 26 27 22 21 20 23 23 26 31 29 27 22 29 30 32 32 30
80 81 80 78 76 74 74 74 72 70 71 62 62 64 37 24 23 22 26 29 28 25 27 25 25 25 25 26 30 30 28 26 27 27 27 34 31 27 23 30 31 31 29 28 30
81 83 83 81 77 75 75 76 67 67 70 61 62 40 26 23 19 22 25 29 30 29 29 30 28 31 27 30 32 33 37 27 26 29 31 34 36 29 23 33 33 29 27 27 29
84 86 85 83 80 77 75 73 64 66 65 59 58 30 22 22 19 23 25 28 28 29 32 33 32 32 32 34 33 35 34 29 27 30 31 36 41 22 33 33 31 29 29 30 31
89 89 86 84 84 81 71 60 57 61 55 52 41 32 25 34 24 26 27 29 30 31 33 29 35 31 34 36 35 36 32 29 32 31 36 39 42 33 33 34 36 33 31 32 32
90 90 87 85 83 79 62 56 53 56 40 19 16 27 25 25 27 28 29 30 32 36 37 38 34 33 30 28 61 31 33 33 37 32 34 40 41 33 27 29 38 34 33 31 33
91 90 87 85 81 66 45 36 33 38 29 30 24 22 24 27 28 31 32 32 31 34 36 36 37 36 23 31 33 37 48 48 33 31 41 40 44 33 31 30 42 37 36 34 37
92 90 87 83 73 58 39 33 52 58 33 31 26 28 25 25 32 33 34 38 36 36 34 39 38 27 33 37 42 39 44 42 34 35 41 43 42 41 34 35 38 39 37 38 40
93 91 89 82 63 47 38 50 53 57 47 35 28 26 28 29 30 36 35 35 36 35 36 38 32 35 38 35 43 44 47 43 47 42 36 44 46 48 50 43 41 37 35 37 43
96 92 87 76 55 44 39 50 57 60 67 49 32 33 33 32 38 37 36 39 40 41 35 37 39 41 38 40 45 80 39 46 54 67 60 57 73 41 39 48 44 40 37 41 43
93 95 79 61 53 42 46 51 56 65 100 34 30 31 34 37 39 45 39 40 42 37 53 42 38 42 64 43 44 72 46 50 53 75 78 61 82 41 40 42 37 36 41 41 46
91 96 76 62 53 54 49 57 72 92 100 38 32 33 38 39 40 42 42 38 42 45 44 44 43 46 50 43 46 47 62 52 63 73 91 67 56 41 43 62 43 42 44 46 54
91 89 71 61 65 63 73 77 99 100 52 60 33 34 37 42 45 44 41 45 47 77 63 44 42 48 46 60 46 63 76 81 85 91 81 58 60 49 57 52 63 70 65 67 53
90 82 84 77 77 80 82 98 100 100 100 31 33 41 44 57 63 46 41 38 48 49 47 68 78 57 61 68 81 59 78 74 83 72 62 44 76 60 69 68 78 77 75 50 49
82 91 91 85 82 86 94 100 100 98 35 32 33 68 96 58 67 45 41 33 38 50 94 76 79 52 64 56 57 70 72 57 81 78 84 60 48 55 54 65 86 76 53 55 56
93 92 94 77 83 93 100 98 100 77 71 89 99 97 100 80 64 51 41 38 49 51 49 80 88 48 55 59 54 59 53 84 83 89 83 53 62 67 71 79 73 78 66 62 58
96 97 80 68 90 96 100 100 99 95 100 100 100 88 93 95 50 57 42 44 44 55 48 66 86 67 58 85 80 68 66 65 70 72 87 83 71 78 78 85 89 79 68 68 68
97 100 68 83 99 100 100 100 99 97 100 98 73 54 96 91 83 76 50 38 41 51 60 60 89 84 97 84 62 60 87 75 80 87 78 84 77 82 80 86 85 79 72 67 68
99 91 64 85 100 100 100 100 99 97 96 96 77 78 84 93 98 75 50 51 49 54 68 79 66 81 96 87 61 85 79 74 79 79 83 86 74 85 85 87 80 85 79 76 74
94 100 94 85 99 100 100 100 100 98 94 89 82 77 88 86 77 90 56 59 58 53 65 67 77 85 70 86 80 88 86 77 75 86 78 82 77 80 82 86 84 83 80 82 82
98 100 100 100 99 96 100 100 98 100 94 92 82 91 92 96 88 94 75 59 63 65 68 71 90 87 84 84 86 84 85 85 87 83 79 84 93 77 81 88 87 87 85 84 83
99 98 100 100 93 99 97 99 96 98 100 91 98 99 96 97 86 70 62 54 59 65 71 74 85 88 91 88 91 93 85 89 86 85 90 88 89 78 84 87 89 85 86 86 84
88 86 91 95 99 98 88 93 99 100 90 77 84 94 95 90 91 68 56 56 60 82 77 85 84 87 80 82 79 94 88 92 85 83 80 85 95 82 86 88 84 85 86 86 85
Wind_Speed
10 11 11 12 12 12 12 11 10 8 7 5 4 3 4 4 7 1 6 8 10 13 9 3 3 1 2 2 1 2 6 6 4 4 2 3 4 4 5 12 14 12 13 8 11
10 11 11 12 13 12 13 12 10 7 6 6 3 1 2 7 6 5 6 12 10 7 3 1 3 3 2 2 2 5 4 4 5 4 6 8 10 11 9 14 17 18 13 10 15
10 11 12 11 12 13 12 12 10 7 6 5 3 2 3 7 6 3 10 9 7 4 2 1 2 2 3 2 1 1 4 4 1 4 6 9 13 14 16 17 17 10 11 14 17
10 11 12 13 12 12 13 12 10 8 6 4 3 2 3 6 3 4 9 7 4 2 2 2 3 3 4 3 1 5 3 4 2 1 6 12 13 14 15 17 6 7 10 13 16
10 11 11 13 14 14 14 12 11 8 7 4 2 2 4 5 1 4 4 3 3 2 2 1 2 1 4 1 2 6 3 3 7 8 12 11 15 16 16 14 3 7 10 11 13
10 11 11 12 13 14 14 14 12 9 6 4 2 1 4 6 5 5 2 1 5 3 4 2 3 1 1 1 5 4 9 10 5 6 9 10 16 15 10 2 6 8 10 10 12
11 12 13 13 14 15 15 14 13 7 5 4 2 5 5 2 2 5 0 2 3 3 1 4 4 3 1 3 1 4 8 7 5 1 5 8 17 12 3 3 7 10 10 11 12
10 11 13 15 16 17 16 13 7 1 4 3 2 4 3 2 0 2 1 2 2 3 3 3 3 2 3 1 3 5 3 8 6 3 2 4 12 9 4 5 11 11 10 11 12
9 10 13 14 16 17 16 10 2 4 2 2 4 4 2 4 4 3 1 3 1 0 0 1 3 3 4 6 7 7 8 11 8 6 3 5 16 3 5 10 12 11 10 10 12
9 10 12 14 15 16 15 4 3 6 3 3 2 4 3 2 5 2 2 1 3 2 4 4 4 6 7 6 5 9 8 7 14 3 11 18 26 20 17 9 12 10 10 11 13
9 9 12 14 16 13 8 4 4 5 4 5 2 3 3 4 2 2 1 3 3 4 5 3 6 9 3 2 6 8 10 16 17 7 10 12 22 19 15 13 12 11 8 12 14
9 9 12 14 15 10 5 4 4 5 9 4 2 1 1 1 4 3 3 5 5 7 2 5 9 5 2 3 8 11 15 17 6 6 16 16 21 15 14 11 10 5 9 12 14
8 9 10 13 8 2 5 4 1 2 7 2 1 2 1 3 2 4 3 1 6 7 9 10 3 3 3 7 10 13 12 12 14 19 11 11 13 5 1 4 5 8 7 11 12
11 8 7 13 3 2 2 2 1 1 5 3 2 2 2 1 3 2 2 3 4 4 3 9 4 4 7 9 2 6 3 9 15 12 5 5 8 7 6 7 8 7 9 12 12
15 11 3 5 5 3 4 0 2 4 6 3 2 1 1 4 2 3 1 3 7 3 2 1 3 5 3 4 2 8 14 14 9 4 9 7 4 3 4 8 8 4 11 12 12
14 9 2 1 0 4 4 2 3 2 8 2 2 1 2 3 2 1 3 2 2 4 7 7 1 2 2 5 6 12 10 4 1 2 4 6 3 6 3 1 1 6 12 13 13
16 9 4 2 1 5 2 2 2 5 1 1 0 2 2 2 3 2 3 6 5 3 5 3 5 3 1 5 4 7 9 4 3 3 3 6 7 7 4 2 4 9 12 12 11
4 8 7 5 4 5 2 0 7 2 3 1 1 2 5 3 3 3 4 6 7 4 4 3 4 5 2 2 2 4 5 2 8 7 11 8 7 1 4 2 5 5 9 10 11
9 2 3 5 6 4 2 3 4 1 3 3 2 2 3 2 4 4 8 4 2 8 5 3 3 5 4 2 1 3 2 3 4 3 5 5 5 6 3 4 9 8 11 10 10
2 2 2 6 6 2 1 5 4 3 3 2 7 4 4 2 2 3 5 2 5 1 1 2 5 3 5 2 1 4 7 3 3 6 8 5 7 7 2 9 13 10 11 11 11
1 1 3 5 1 0 3 4 2 1 3 3 1 3 4 2 5 3 3 3 2 5 1 4 2 4 3 6 4 4 4 2 2 2 5 8 5 3 2 7 12 11 10 10 11
2 2 3 3 1 0 2 2 1 1 2 3 5 6 4 1 4 2 5 3 2 6 3 4 2 6 1 4 1 1 3 4 3 5 5 3 10 7 3 5 8 10 10 9 9
3 1 2 2 1 1 1 3 2 3 3 2 3 4 3 2 5 4 3 3 2 2 1 4 3 5 4 3 2 4 5 3 3 2 7 4 6 5 5 8 6 8 8 8 9
3 1 1 1 1 2 2 2 3 4 3 4 3 2 1 4 5 4 3 1 1 1 1 3 3 6 5 2 2 4 8 10 5 4 3 11 16 6 4 7 6 6 6 6 5
1 2 1 2 3 3 1 2 2 2 4 4 3 9 5 4 2 4 4 2 3 4 1 2 5 2 8 6 3 7 5 13 14 5 7 1 6 15 11 6 5 5 4 4 4
3 2 2 2 2 4 4 2 3 2 4 3 6 2 8 5 2 2 2 3 2 7 3 1 3 3 6 3 3 6 10 11 14 11 15 14 19 1 2 2 4 4 3 3 3
2 1 2 3 2 2 3 3 2 0 5 4 4 4 6 8 4 7 7 5 4 3 7 3 3 3 5 1 6 7 8 14 8 9 6 7 1 3 3 5 4 4 4 4 4
Wind_Direction
7 2 360 360 359 358 3 10 6 2 2 10 24 29 99 355 272 341 31 343 325 320 312 294 224 142 195 118 303 274 241 260 266 274 58 130 294 304 260 269 277 277 277 318 349
3 357 357 358 351 353 356 356 357 353 354 1 16 8 319 329 296 24 6 333 335 338 295 318 146 178 147 151 191 252 263 5 28 342 290 306 287 301 291 282 281 281 278 345 335
357 352 350 353 349 345 348 347 342 338 339 350 1 345 304 297 273 35 5 343 347 309 2 354 168 229 188 230 153 185 295 42 323 302 306 294 289 282 276 274 282 309 310 318 319
352 350 348 345 345 341 339 337 328 322 317 329 333 329 290 253 308 30 357 344 340 296 232 171 196 213 201 217 173 267 256 275 348 282 286 287 296 279 270 276 355 314 318 309 313
345 346 345 342 339 338 335 331 318 306 300 299 303 325 245 237 263 30 346 1 335 343 2 31 233 226 227 238 236 249 305 287 293 277 283 291 276 273 279 275 232 288 291 297 305
336 338 339 338 335 333 332 325 315 295 272 265 270 240 242 260 96 8 357 317 27 19 45 353 10 350 99 260 245 345 298 295 299 285 280 284 284 283 265 62 246 255 277 294 303
331 333 335 336 332 332 329 322 320 291 241 227 240 229 245 310 110 10 337 53 22 10 44 37 16 275 36 209 338 301 294 259 201 311 307 331 276 229 216 184 259 269 295 305 312
325 329 334 333 332 331 328 325 327 265 179 204 249 227 276 121 81 19 197 120 76 51 54 24 340 323 283 79 212 257 251 329 151 201 98 342 284 323 124 258 277 294 298 310 316
316 323 328 331 330 329 328 319 340 135 137 207 216 251 239 132 209 91 317 275 138 134 65 268 263 292 210 255 231 214 307 310 326 162 237 227 289 302 227 260 281 284 298 306 316
308 317 324 329 331 332 329 297 124 157 168 209 249 245 162 198 129 103 77 222 258 207 237 229 238 254 228 262 279 299 306 297 303 269 276 290 275 275 276 271 265 281 291 314 325
302 313 322 329 334 339 322 238 221 186 207 260 2 320 146 96 176 109 113 187 223 232 249 160 254 234 294 247 302 289 280 285 296 15 309 275 283 282 281 264 247 258 296 315 323
298 311 320 329 335 337 303 32 31 340 297 194 224 174 94 219 207 170 198 215 215 244 189 224 244 61 91 252 265 275 283 294 321 187 322 295 288 286 277 251 247 281 299 320 320
292 302 316 327 327 356 49 41 346 331 261 156 183 205 104 208 274 146 227 222 248 245 226 255 12 137 243 266 276 279 277 304 298 319 275 305 269 194 247 187 199 238 329 323 319
305 280 306 322 279 9 59 32 184 24 277 157 164 100 149 247 231 47 34 297 229 277 274 262 88 236 258 276 269 288 39 306 307 328 307 18 296 226 167 211 211 242 337 326 318
341 279 293 7 323 324 12 238 197 242 299 90 124 64 103 253 27 143 56 197 257 261 209 53 226 240 274 268 164 261 326 301 315 269 321 149 253 209 169 236 225 269 332 327 326
333 309 119 294 241 33 338 316 263 278 245 132 126 159 221 201 214 131 214 215 327 270 225 264 71 247 268 292 251 297 300 301 170 310 257 160 251 275 158 355 284 319 331 328 316
330 100 81 23 20 341 337 277 325 229 310 108 207 205 256 228 243 241 216 207 231 239 216 174 204 135 308 287 194 327 294 309 269 225 310 166 252 296 105 104 311 314 318 310 308
120 85 63 54 331 311 107 260 239 236 244 106 230 223 243 132 230 234 250 244 209 212 284 265 231 179 53 55 330 14 303 28 299 314 312 192 245 65 104 155 284 277 295 297 315
130 73 51 8 343 303 112 271 248 306 327 351 257 254 250 173 235 249 225 251 94 192 215 260 224 119 81 77 265 85 242 48 275 114 270 233 238 136 166 225 329 325 309 311 313
85 78 35 334 342 280 95 223 263 13 343 58 202 210 257 128 240 243 217 122 156 157 168 66 281 165 121 134 121 283 138 206 151 308 301 304 293 276 224 328 317 322 311 311 310
113 53 31 1 344 27 225 254 309 42 344 285 276 261 242 280 251 250 293 146 171 143 182 160 251 128 156 192 156 156 213 194 297 240 301 311 311 91 177 318 305 307 308 306 315
109 257 15 332 85 1 266 328 310 294 193 279 261 257 216 260 273 257 264 352 134 156 188 150 302 262 223 104 10 303 282 231 240 153 231 286 276 123 184 298 290 300 304 308 324
97 84 73 320 231 208 195 268 264 218 214 234 265 239 62 233 256 226 290 26 157 194 204 165 190 291 183 143 154 228 190 225 94 40 228 258 286 159 240 281 297 289 304 325 331
148 191 66 28 52 261 276 216 244 200 248 240 287 213 194 233 197 294 297 83 211 283 99 172 272 257 272 13 11 212 195 199 216 221 172 236 289 269 344 306 316 303 322 333 340
185 231 57 185 232 216 256 300 294 291 227 221 244 228 207 262 209 234 249 248 194 160 125 287 270 298 273 276 225 259 220 195 207 246 234 24 263 297 317 303 321 315 315 329 348
157 175 176 147 171 189 187 224 280 270 226 210 239 347 224 253 258 17 343 235 262 176 230 138 286 332 275 101 210 270 232 210 225 250 260 277 285 317 57 295 267 272 262 243 218
68 11 299 162 176 224 204 221 265 286 221 261 259 282 240 258 320 301 276 303 289 192 199 204 276 294 275 245 296 265 214 181 186 205 200 205 203 162 239 246 262 233 230 242 229